RH
22 18 18 20 22 21 22 23 34 33 24 18 15 16 18 17 19 23 23 15 17 21 33 37 47 74 74 78 80 81 87 93 97 96 95 96 96 97 94 95 92 89 89 88
33 20 20 21 19 19 18 18 17 19 20 14 12 12 15 14 14 17 19 24 21 22 36 47 74 77 80 83 85 86 91 96 95 96 96 96 96 94 92 90 89 87 90 94
47 27 23 38 25 18 16 16 17 23 19 15 16 14 16 19 16 18 23 31 32 31 50 63 75 75 81 86 87 89 90 89 90 90 92 92 88 87 89 91 90 88 85 83
60 66 58 28 18 17 20 17 16 15 16 15 14 14 17 19 24 25 31 36 38 49 57 67 72 74 79 78 84 85 85 84 85 85 84 81 80 83 86 82 80 80 80 77
67 58 36 25 22 23 26 26 19 17 16 14 13 21 25 22 26 30 38 42 48 50 54 65 71 71 71 74 75 75 78 78 74 74 74 75 80 80 79 80 78 77 66 57
76 63 67 39 22 24 24 39 20 18 22 20 20 43 31 29 30 38 39 42 48 51 54 58 61 62 63 65 67 71 68 67 66 69 73 75 76 75 76 76 64 50 51 62
77 78 53 26 23 28 46 47 29 22 21 25 24 33 35 35 40 40 40 42 45 48 52 53 53 54 57 59 63 61 62 63 65 63 64 66 68 61 55 57 68 81 76 69
73 80 71 27 31 34 37 43 31 28 29 37 48 44 41 41 42 40 40 42 44 48 48 50 50 53 56 58 55 56 58 59 60 54 44 46 56 55 51 63 69 70 73 75
54 61 48 42 39 42 40 39 40 37 32 34 47 42 42 42 42 40 40 43 42 46 53 53 50 48 51 54 53 53 53 50 47 43 44 45 53 50 48 51 64 82 81 87
49 44 47 42 42 40 33 40 33 34 35 34 44 41 42 40 39 40 40 41 42 48 51 52 47 45 46 48 48 48 50 49 46 44 40 35 31 36 53 71 86 81 83 85
44 34 37 35 33 42 40 38 36 34 36 35 42 41 40 39 39 39 41 40 44 50 52 48 45 46 45 46 46 47 47 42 42 44 46 46 52 57 81 79 80 85 85 84
67 41 46 42 47 48 47 45 41 42 39 36 35 39 38 38 38 39 42 42 46 46 47 47 46 45 43 41 40 42 40 48 70 69 63 44 51 62 73 73 67 68 66 82
38 40 48 52 45 40 46 44 41 41 43 40 39 37 39 39 41 49 43 45 48 51 49 46 44 39 37 43 45 50 54 53 62 63 64 64 67 74 81 72 62 64 67 62
27 50 53 44 49 47 45 44 46 40 40 41 43 40 40 42 46 44 45 47 46 45 43 41 40 42 42 44 50 57 54 73 64 73 72 78 73 75 75 80 89 88 71 66
45 47 47 48 47 45 44 45 46 47 47 46 44 45 46 46 47 48 48 44 42 43 41 43 47 50 48 58 58 71 70 81 84 85 82 79 79 79 78 78 79 78 76 78
43 45 44 48 46 48 47 48 55 52 48 48 51 52 51 56 65 72 66 60 64 71 73 89 84 88 64 69 88 83 66 77 73 70 74 73 76 76 72 77 77 81 82 85
59 59 54 55 55 53 55 54 54 53 58 69 78 78 78 82 85 90 93 91 93 96 96 96 97 84 55 51 50 53 60 62 75 62 66 70 75 77 76 83 85 86 89 94
52 52 49 56 63 68 80 82 82 83 86 86 87 88 90 91 95 96 96 96 96 96 95 93 76 53 53 49 50 57 67 64 64 70 68 80 80 76 81 85 81 82 85 81
68 75 78 81 83 90 95 96 95 93 93 92 93 96 96 96 95 95 95 95 96 94 93 88 66 58 56 68 56 68 73 77 72 67 75 77 87 82 86 89 87 88 85 86
86 86 88 90 90 91 96 97 96 96 96 95 95 94 95 96 96 96 96 95 90 86 62 47 46 47 49 52 71 60 76 82 75 80 87 86 90 91 90 83 86 90 92 90
95 92 92 92 97 97 97 95 91 92 93 90 91 94 95 96 94 93 90 80 60 60 54 61 58 56 54 60 61 81 85 87 86 86 88 90 90 88 89 89 91 91 91 91
97 97 97 96 93 94 93 87 86 92 92 93 93 92 92 88 86 84 83 72 64 71 63 72 70 80 69 85 76 89 85 86 90 90 91 93 94 92 91 91 92 92 92 91
96 95 94 92 91 92 90 91 95 93 95 94 90 85 78 75 80 79 81 65 67 86 82 86 85 86 88 90 92 92 90 88 89 91 90 92 92 92 90 89 93 91 92 91
94 92 89 77 71 70 78 72 71 76 86 83 88 92 88 86 85 76 76 84 88 90 91 89 88 86 93 93 90 90 89 89 89 93 92 85 88 90 90 91 91 93 91 93
81 72 66 65 62 62 60 60 64 68 75 76 78 76 76 83 92 94 91 88 83 88 91 90 92 85 87 90 92 90 89 90 94 90 90 93 90 90 90 90 93 94 92 90
83 84 83 77 74 71 72 77 88 85 80 90 91 92 90 89 88 85 86 85 83 82 87 92 90 91 87 89 85 86 90 87 90 90 92 90 88 88 90 89 89 90 91 92
82 76 73 76 74 78 80 79 86 90 91 90 90 84 84 89 86 83 86 85 87 87 86 88 88 86 90 86 89 88 85 87 90 92 90 91 88 90 91 90 91 90 88 89
Wind_Speed
18 18 17 18 20 19 21 16 14 13 16 15 12 1 4 2 4 9 14 6 5 4 10 10 10 13 11 11 10 10 12 11 10 10 12 11 9 9 9 9 8 9 9 7
20 20 22 16 20 22 21 20 19 14 16 14 12 12 9 7 3 4 2 8 6 2 12 12 16 12 11 10 9 9 11 11 10 11 10 10 10 10 9 9 8 8 7 6
15 19 17 19 16 13 13 14 13 14 10 11 9 10 7 2 3 4 7 5 2 2 12 14 13 13 12 12 9 10 11 11 11 11 11 9 11 10 10 8 7 7 6 6
9 3 24 9 12 14 13 12 13 14 11 9 11 10 2 6 1 7 8 6 5 7 9 15 15 14 13 12 10 10 11 11 11 11 11 10 10 9 8 8 8 7 7 6
7 14 12 19 10 9 9 13 12 14 13 13 13 5 4 5 3 5 8 7 5 6 9 15 15 14 13 12 12 12 12 12 11 11 11 10 9 8 7 6 6 4 4 5
6 12 17 9 12 4 7 13 13 12 10 11 6 4 1 9 6 10 10 8 9 9 9 11 14 16 15 15 14 12 12 12 11 11 10 9 8 8 6 6 4 5 6 6
7 6 5 8 12 7 14 5 12 12 11 7 5 3 13 11 10 10 10 11 12 11 10 11 11 11 13 13 12 12 12 12 11 11 10 10 8 5 4 5 7 6 5 5
7 5 15 5 4 19 8 2 7 6 5 4 11 11 12 11 12 12 13 14 13 11 11 11 11 11 13 12 13 12 12 11 9 7 6 6 6 5 5 6 6 5 5 2
5 3 2 6 5 5 6 2 4 6 5 1 12 10 11 11 12 12 13 11 11 11 12 11 12 11 12 13 12 11 10 9 9 8 6 5 6 5 3 5 4 4 2 2
6 7 11 5 3 3 5 5 4 4 4 3 10 12 12 11 11 11 12 11 10 12 11 10 9 10 12 12 11 10 10 9 7 6 6 5 5 3 5 5 3 2 2 2
14 15 7 16 11 5 5 6 5 5 3 7 9 11 12 12 13 12 11 10 11 10 9 9 10 11 10 9 8 9 9 7 6 4 5 5 9 6 7 6 5 3 4 3
3 5 4 3 5 5 4 6 4 2 4 4 5 8 10 9 10 10 11 9 9 10 11 11 10 9 8 7 9 9 8 7 4 4 4 3 6 5 10 10 9 9 6 3
4 2 4 4 1 6 6 7 8 5 2 5 2 6 9 8 8 10 10 10 11 11 11 11 10 11 11 11 9 11 9 7 4 4 4 4 2 2 5 3 4 7 8 6
7 7 2 4 3 4 3 6 6 5 5 3 6 8 8 10 11 11 12 12 13 13 12 13 13 11 10 11 11 9 8 8 5 5 4 4 4 3 3 2 1 3 8 8
7 5 4 6 3 5 5 2 5 6 7 8 9 11 16 15 14 12 13 14 15 15 15 14 13 11 9 9 12 11 9 6 5 4 4 3 2 2 2 2 1 2 2 7
9 7 6 3 6 5 5 6 8 7 8 9 11 12 15 19 21 19 18 17 17 14 13 12 10 9 9 7 8 7 6 6 5 3 1 2 2 2 3 2 2 2 2 1
10 6 6 8 7 7 10 8 8 9 13 18 20 21 22 20 20 19 17 16 15 13 10 8 8 5 6 8 7 5 4 4 2 2 3 3 3 3 3 2 2 2 2 2
12 11 9 11 11 13 16 17 16 17 17 17 17 18 18 18 16 14 13 13 12 12 9 8 7 8 9 8 7 5 4 4 3 3 3 3 4 4 4 3 4 3 3 4
17 17 18 18 17 15 14 14 15 15 14 15 17 17 15 14 13 13 11 11 10 9 8 7 8 9 8 7 5 4 4 4 3 3 3 3 2 4 3 3 4 3 4 4
16 18 18 19 16 16 16 14 16 16 14 17 16 16 16 13 11 11 10 11 9 7 7 7 7 6 6 6 6 3 3 3 3 3 2 2 3 4 3 5 4 4 4 4
15 16 18 18 18 17 15 14 15 16 15 15 16 15 14 12 9 9 9 8 9 8 7 7 8 5 7 7 6 4 4 4 4 4 4 4 4 4 5 5 4 4 4 4
13 15 17 18 19 19 17 16 17 16 16 15 14 13 12 12 10 12 9 8 6 3 5 7 7 9 7 8 5 5 5 5 5 5 5 5 5 5 5 5 5 4 5 5
15 16 17 18 18 19 18 16 15 15 14 12 11 10 10 9 6 6 7 7 6 8 9 7 7 7 8 5 5 5 5 6 5 5 5 5 6 5 4 5 4 4 4 5
16 16 17 16 16 17 19 16 16 15 13 13 13 12 8 7 8 7 8 9 9 8 7 6 6 6 6 5 5 5 6 6 6 6 6 6 6 6 6 6 6 4 4 5
16 16 16 15 16 13 15 14 13 13 13 13 13 12 12 10 8 7 7 7 9 7 6 4 5 5 5 7 8 7 7 6 5 5 6 5 6 7 7 7 6 5 5 4
15 12 12 16 12 10 10 9 8 8 8 8 8 8 8 7 7 6 6 6 6 6 6 6 6 6 6 5 6 7 7 7 7 6 6 6 6 7 7 7 7 6 6 6
13 14 11 12 11 11 10 9 8 8 8 8 8 7 8 7 8 8 8 7 6 6 6 6 6 7 7 7 7 7 7 7 7 7 6 7 7 7 7 7 7 7 7 6
Wind_Direction
236 241 226 214 222 235 250 249 232 228 249 259 265 288 335 282 155 135 244 207 234 197 149 139 113 82 80 76 78 89 92 95 98 104 101 107 110 112 112 114 119 122 121 122
247 228 248 251 223 215 218 242 258 255 257 265 276 273 211 234 243 214 257 19 10 236 132 123 105 107 97 91 88 99 104 100 103 102 97 109 112 113 113 115 116 117 118 128
239 247 245 249 243 250 226 231 244 251 260 269 277 273 273 244 257 180 123 125 276 314 105 107 119 117 117 104 104 103 105 109 110 113 117 123 123 122 121 119 120 127 150 180
224 215 240 267 248 250 262 271 278 271 264 263 276 278 34 87 161 140 139 160 156 107 120 106 117 116 117 120 124 124 125 123 121 121 122 124 119 120 125 137 156 177 187 186
192 236 260 234 223 240 230 248 258 250 262 258 266 66 131 146 128 137 137 143 126 124 127 122 124 128 130 138 140 131 125 124 127 129 128 127 130 141 156 176 192 197 173 101
250 218 232 238 229 180 237 252 245 252 267 272 214 175 35 124 133 112 130 141 142 135 132 138 144 149 148 145 140 136 135 134 131 132 132 137 153 166 176 194 166 75 75 73
244 243 249 218 229 196 223 209 254 258 263 260 261 66 121 123 123 138 146 148 145 150 147 139 135 138 136 127 132 137 134 136 145 156 161 163 169 131 116 90 89 93 86 56
224 226 238 1 352 217 216 193 261 284 280 20 109 116 131 144 155 161 161 154 154 151 143 140 147 141 138 141 139 140 143 141 159 139 113 108 107 101 98 99 99 107 102 81
191 196 269 215 233 340 17 300 324 323 333 121 137 146 152 157 165 165 163 159 160 149 143 152 151 156 139 136 139 137 140 129 116 122 111 108 107 107 121 104 97 89 101 108
295 278 280 277 225 260 299 329 336 338 334 295 152 157 166 166 166 169 163 168 150 146 154 150 150 131 120 124 133 137 128 122 121 113 109 108 110 92 86 68 68 82 73 61
219 236 226 288 292 242 312 294 261 282 239 298 164 173 173 173 171 167 168 156 148 154 142 130 104 106 116 123 129 121 114 109 95 101 100 74 60 38 86 56 61 21 43 28
179 216 193 245 104 43 323 325 303 197 280 270 216 165 171 176 165 161 150 146 138 129 114 99 99 98 96 103 107 114 114 83 66 76 48 52 117 108 68 124 122 117 114 87
222 129 65 79 70 38 2 335 354 328 251 280 194 153 163 153 144 135 132 124 108 103 103 103 98 75 54 48 67 83 91 91 86 85 69 63 44 55 146 141 153 166 162 163
247 99 198 240 68 62 14 10 353 0 357 339 91 100 116 105 102 108 110 106 107 105 97 84 79 74 67 66 68 74 73 47 62 44 52 45 43 31 17 12 141 164 204 206
128 110 65 89 116 77 65 46 82 65 64 65 75 91 97 105 105 101 96 98 97 89 84 82 72 57 45 59 58 49 65 54 57 71 52 40 16 16 347 346 356 332 320 201
134 125 127 150 103 94 95 86 88 87 86 83 84 92 85 77 75 67 63 72 82 78 81 78 68 26 31 62 106 85 73 47 29 33 57 36 21 352 327 351 339 317 315 336
120 133 136 133 119 103 87 90 92 89 75 68 76 85 84 82 75 72 72 78 83 83 78 77 73 64 40 34 49 49 95 78 26 346 26 28 359 331 341 328 314 320 312 89
60 62 86 111 111 94 71 70 75 79 83 86 82 81 81 82 93 95 96 95 88 81 73 72 80 65 50 43 52 49 42 30 25 7 4 355 18 346 308 318 308 310 331 339
70 74 69 73 82 90 88 89 87 89 90 91 86 85 89 90 94 95 94 93 96 97 85 89 90 81 69 43 29 56 46 22 348 351 9 331 324 305 322 336 323 328 327 319
83 87 88 87 84 86 89 85 88 85 87 92 95 93 91 91 96 92 82 76 81 100 123 101 87 79 71 44 10 46 29 345 332 334 322 351 292 306 334 301 307 323 328 323
86 88 90 91 87 82 83 89 92 91 88 87 92 93 94 93 97 111 99 96 98 93 92 69 53 31 57 12 322 33 351 340 330 343 335 327 319 316 324 327 328 329 324 327
89 87 86 86 84 82 78 81 82 84 84 84 85 88 92 92 82 67 68 97 111 140 84 64 59 38 21 345 352 0 355 349 346 335 326 330 332 328 327 331 329 330 334 334
83 85 85 83 85 85 81 77 79 82 82 80 79 75 72 66 56 103 90 91 82 40 73 65 56 33 5 323 359 351 354 346 335 339 335 339 338 328 319 308 320 318 315 317
88 85 87 90 90 86 86 87 88 84 83 80 66 50 58 96 85 78 85 68 50 66 70 64 50 23 337 323 359 358 351 346 337 345 360 343 324 326 336 330 321 322 327 334
88 90 90 89 88 90 98 97 94 84 76 73 68 62 59 49 63 70 80 77 47 44 97 91 87 8 5 3 10 3 346 337 350 333 325 350 347 335 331 330 330 337 335 318
76 74 71 68 71 74 72 71 72 87 92 81 74 70 66 62 72 77 84 70 52 38 34 34 27 21 12 16 357 340 342 347 346 348 351 349 336 324 333 338 337 340 343 345
78 76 75 70 62 60 64 68 68 55 59 78 76 63 56 58 54 55 51 43 41 40 31 21 22 17 11 357 351 356 350 348 350 353 346 350 341 335 338 339 342 343 334 323